This is the latest recevied weather packets stored in our database for station/object F4DYW-13. If no packets are shown the sender has not sent any weather packets the latest 10 day(s).
| Time | Temp. | Humidity | Pressure | Rain* | Wind** | Luminosity | Snow |
|---|---|---|---|---|---|---|---|
| 1777582624 | 18.89° C | 73% | 1024.2 hPa | 0 mm | - | - | - |
| 1777581588 | 18.89° C | 73% | 1024.3 hPa | 0 mm | - | - | - |
| 1777580553 | 18.89° C | 73% | 1024.2 hPa | 0 mm | - | - | - |
| 1777579517 | 18.89° C | 73% | 1024.1 hPa | 0 mm | - | - | - |
| 1777578481 | 18.89° C | 73% | 1024.1 hPa | 0 mm | - | - | - |
| 1777577446 | 18.89° C | 73% | 1023.9 hPa | 0 mm | - | - | - |
| 1777576410 | 18.89° C | 73% | 1023.7 hPa | 0 mm | - | - | - |
| 1777575375 | 18.89° C | 73% | 1023.5 hPa | 0 mm | - | - | - |
| 1777574339 | 18.89° C | 71% | 1023.3 hPa | 0 mm | - | - | - |
| 1777573304 | 18.89° C | 70% | 1023.4 hPa | 0 mm | - | - | - |
| 1777572268 | 18.89° C | 70% | 1023.3 hPa | 0 mm | - | - | - |
| 1777571232 | 18.89° C | 69% | 1023.1 hPa | 0 mm | - | - | - |
| 1777570197 | 18.89° C | 70% | 1023.1 hPa | 0 mm | - | - | - |
| 1777569161 | 18.89° C | 70% | 1023 hPa | 0 mm | - | - | - |
| 1777568126 | 18.89° C | 68% | 1023 hPa | 0 mm | - | - | - |
| 1777567090 | 18.89° C | 68% | 1022.8 hPa | 0 mm | - | - | - |
| 1777566054 | 18.89° C | 68% | 1022.8 hPa | 0 mm | - | - | - |
| 1777565019 | 18.89° C | 68% | 1022.7 hPa | 0 mm | - | - | - |
| 1777563983 | 18.89° C | 68% | 1022.6 hPa | 0 mm | - | - | - |
| 1777562947 | 18.89° C | 70% | 1022.6 hPa | 0 mm | - | - | - |
| 1777561912 | 18.89° C | 70% | 1022.5 hPa | 0 mm | - | - | - |
| 1777560876 | 18.89° C | 70% | 1022.6 hPa | 0 mm | - | - | - |
| 1777559841 | 18.89° C | 69% | 1022.5 hPa | 0 mm | - | - | - |
| 1777558805 | 18.89° C | 71% | 1022.6 hPa | 0 mm | - | - | - |
| 1777557770 | 18.89° C | 66% | 1022.6 hPa | 0 mm | - | - | - |
* Rain latest hour (hover to see other rain measurements)
** Current wind speed in m/s (hover to see current wind gust speed)